Private Wetterstation Wechselburg
Wetterdaten: Dienstag, 26.01.2010
Datum Zeit Temp. +2m Bodentemp. Temp.+5cm Temp. Wind Windchill X Diff Temp. Feuchte +2m Feuchte +5cm Sonnenschein Luftdruck Regen Wind Richtung Richtung Sonnenschein UV Taupunkt Windchill Windben
26.01.2010 00:00 -5,1 C 0,6 C -5,2 C -5,4 C -6,0 C 0,0 C 80 % 84 % 0 % 1032,1 hPa 0,0 l/m 2,3 km/h (1 Bft) NO 45 0 min 0,0 UV-I -8,0 C -6,0 C 1,9 km/h (1 Bft)
26.01.2010 00:10 -5,3 C 0,6 C -5,3 C -5,5 C -5,9 C 0,0 C 80 % 84 % 0 % 1032,1 hPa 0,0 l/m 1,4 km/h (1 Bft) NO 45 0 min 0,0 UV-I -8,2 C -5,9 C 0,0 km/h (0 Bft)
26.01.2010 00:15 -5,3 C 0,6 C -5,5 C -5,6 C -6,1 C 0,0 C 80 % 83 % 0 % 1032,1 hPa 0,0 l/m 1,4 km/h (1 Bft) NO 45 0 min 0,0 UV-I -8,2 C -6,1 C 4,0 km/h (1 Bft)
26.01.2010 00:20 -5,4 C 0,6 C -5,5 C -5,7 C -6,2 C 0,0 C 80 % 84 % 0 % 1032,1 hPa 0,0 l/m 1,4 km/h (1 Bft) NO 45 0 min 0,0 UV-I -8,3 C -6,2 C 1,8 km/h (1 Bft)
26.01.2010 00:25 -5,3 C 0,6 C -5,6 C -5,6 C -6,3 C 0,0 C 80 % 84 % 0 % 1032,1 hPa 0,0 l/m 1,4 km/h (1 Bft) NO 45 0 min 0,0 UV-I -8,2 C -6,3 C 2,1 km/h (1 Bft)
26.01.2010 00:30 -5,5 C 0,6 C -5,5 C -5,8 C -6,3 C 0,0 C 80 % 84 % 0 % 1032,1 hPa 0,0 l/m 1,4 km/h (1 Bft) NO 45 0 min 0,0 UV-I -8,4 C -6,3 C 0,0 km/h (0 Bft)
26.01.2010 00:35 -5,6 C 0,6 C -5,7 C -5,8 C -6,3 C 0,0 C 80 % 84 % 0 % 1032,1 hPa 0,0 l/m 1,9 km/h (1 Bft) NO 45 0 min 0,0 UV-I -8,5 C -6,3 C 6,6 km/h (2 Bft)
26.01.2010 00:40 -5,6 C 0,6 C -5,7 C -5,8 C -6,3 C 0,0 C 80 % 84 % 0 % 1032,1 hPa 0,0 l/m 1,9 km/h (1 Bft) NO 45 0 min 0,0 UV-I -8,5 C -6,3 C 2,1 km/h (1 Bft)
26.01.2010 00:45 -5,7 C 0,6 C -5,7 C -6,1 C -6,9 C 0,0 C 80 % 84 % 0 % 1032,1 hPa 0,0 l/m 2,4 km/h (1 Bft) NO 45 0 min 0,0 UV-I -8,6 C -6,9 C 8,7 km/h (2 Bft)
26.01.2010 00:50 -5,7 C 0,6 C -5,9 C -6,3 C -7,5 C 0,0 C 80 % 84 % 0 % 1032,1 hPa 0,0 l/m 2,9 km/h (1 Bft) NO 45 0 min 0,0 UV-I -8,6 C -7,5 C 4,0 km/h (1 Bft)
26.01.2010 00:55 -5,9 C 0,6 C -6,0 C -6,6 C -8,1 C 0,0 C 80 % 84 % 0 % 1032,1 hPa 0,0 l/m 3,5 km/h (1 Bft) NO 45 0 min 0,0 UV-I -8,8 C -8,1 C 3,7 km/h (1 Bft)
26.01.2010 01:00 -5,9 C 0,6 C -6,1 C -6,7 C -8,2 C 0,0 C 80 % 84 % 0 % 1032,1 hPa 0,0 l/m 3,7 km/h (1 Bft) NO 45 0 min 0,0 UV-I -8,8 C -8,2 C 4,8 km/h (1 Bft)
26.01.2010 01:10 -6,1 C 0,6 C -6,1 C -7,0 C -8,7 C 0,0 C 79 % 84 % 0 % 1032,1 hPa 0,0 l/m 4,2 km/h (1 Bft) NO 45 0 min 0,0 UV-I -9,1 C -8,7 C 4,5 km/h (1 Bft)
26.01.2010 01:15 -6,1 C 0,6 C -6,3 C -6,9 C -8,4 C 0,0 C 79 % 84 % 0 % 1031,9 hPa 0,0 l/m 3,7 km/h (1 Bft) NO 45 0 min 0,0 UV-I -9,1 C -8,4 C 4,7 km/h (1 Bft)
26.01.2010 01:20 -6,3 C 0,6 C -6,4 C -7,1 C -8,6 C 0,0 C 79 % 84 % 0 % 1031,9 hPa 0,0 l/m 3,7 km/h (1 Bft) NO 45 0 min 0,0 UV-I -9,3 C -8,6 C 5,6 km/h (1 Bft)
26.01.2010 01:25 -6,4 C 0,6 C -6,5 C -7,2 C -8,7 C 0,0 C 79 % 84 % 0 % 1031,9 hPa 0,0 l/m 3,7 km/h (1 Bft) NO 45 0 min 0,0 UV-I -9,4 C -8,7 C 3,2 km/h (1 Bft)
26.01.2010 01:30 -6,5 C 0,6 C -6,5 C -7,2 C -8,6 C 0,0 C 79 % 84 % 0 % 1031,9 hPa 0,0 l/m 3,5 km/h (1 Bft) NO 45 0 min 0,0 UV-I -9,5 C -8,6 C 3,2 km/h (1 Bft)
26.01.2010 01:35 -6,5 C 0,6 C -6,6 C -7,0 C -8,1 C 0,0 C 80 % 84 % 0 % 1032,2 hPa 0,0 l/m 2,7 km/h (1 Bft) NO 45 0 min 0,0 UV-I -9,4 C -8,1 C 2,1 km/h (1 Bft)
26.01.2010 01:40 -6,5 C 0,6 C -6,5 C -7,1 C -8,4 C 0,0 C 80 % 84 % 0 % 1032,2 hPa 0,0 l/m 3,1 km/h (1 Bft) NO 45 0 min 0,0 UV-I -9,4 C -8,4 C 2,6 km/h (1 Bft)
26.01.2010 01:45 -6,5 C 0,6 C -6,5 C -7,2 C -8,5 C 0,0 C 80 % 84 % 0 % 1032,2 hPa 0,0 l/m 3,1 km/h (1 Bft) NO 45 0 min 0,0 UV-I -9,4 C -8,5 C 2,3 km/h (1 Bft)
26.01.2010 01:50 -6,5 C 0,6 C -6,5 C -6,9 C -7,8 C 0,0 C 80 % 84 % 0 % 1032,2 hPa 0,0 l/m 2,4 km/h (1 Bft) NO 45 0 min 0,0 UV-I -9,4 C -7,8 C 4,3 km/h (1 Bft)
26.01.2010 01:55 -6,5 C 0,6 C -6,5 C -6,8 C -7,3 C 0,0 C 80 % 84 % 0 % 1032,2 hPa 0,0 l/m 1,4 km/h (1 Bft) NO 45 0 min 0,0 UV-I -9,4 C -7,3 C 2,1 km/h (1 Bft)
26.01.2010 02:00 -6,5 C 0,6 C -6,5 C -6,8 C -7,3 C 0,0 C 80 % 85 % 0 % 1032,2 hPa 0,0 l/m 1,8 km/h (1 Bft) NO 45 0 min 0,0 UV-I -9,4 C -7,3 C 2,6 km/h (1 Bft)
26.01.2010 02:10 -6,5 C 0,6 C -6,5 C -6,8 C -7,3 C 0,0 C 80 % 85 % 0 % 1032,2 hPa 0,0 l/m 1,6 km/h (1 Bft) NO 45 0 min 0,0 UV-I -9,4 C -7,3 C 1,6 km/h (1 Bft)
26.01.2010 02:15 -6,5 C 0,6 C -6,5 C -6,8 C -7,3 C 0,0 C 80 % 85 % 0 % 1032,2 hPa 0,0 l/m 1,6 km/h (1 Bft) NO 45 0 min 0,0 UV-I -9,4 C -7,3 C 3,2 km/h (1 Bft)
26.01.2010 02:20 -6,5 C 0,6 C -6,7 C -6,8 C -7,5 C 0,0 C 80 % 84 % 0 % 1032,2 hPa 0,0 l/m 2,1 km/h (1 Bft) NO 45 0 min 0,0 UV-I -9,4 C -7,5 C 4,2 km/h (1 Bft)
26.01.2010 02:25 -6,6 C 0,6 C -6,7 C -7,1 C -8,2 C 0,0 C 80 % 85 % 0 % 1032,2 hPa 0,0 l/m 2,6 km/h (1 Bft) NO 45 0 min 0,0 UV-I -9,5 C -8,2 C 3,2 km/h (1 Bft)
26.01.2010 02:30 -6,5 C 0,6 C -6,8 C -7,1 C -8,3 C 0,0 C 80 % 84 % 0 % 1032,2 hPa 0,0 l/m 2,6 km/h (1 Bft) NO 45 0 min 0,0 UV-I -9,4 C -8,3 C 3,1 km/h (1 Bft)
26.01.2010 02:35 -6,7 C 0,6 C -6,9 C -7,3 C -8,6 C 0,0 C 80 % 84 % 0 % 1032,4 hPa 0,0 l/m 2,9 km/h (1 Bft) NO 45 0 min 0,0 UV-I -9,6 C -8,6 C 3,7 km/h (1 Bft)
26.01.2010 02:40 -6,7 C 0,6 C -6,9 C -7,4 C -8,8 C 0,0 C 80 % 84 % 0 % 1032,4 hPa 0,0 l/m 3,1 km/h (1 Bft) NO 45 0 min 0,0 UV-I -9,6 C -8,8 C 3,7 km/h (1 Bft)
26.01.2010 02:45 -6,8 C 0,6 C -7,0 C -7,3 C -8,4 C 0,0 C 80 % 84 % 0 % 1032,4 hPa 0,0 l/m 2,6 km/h (1 Bft) NO 45 0 min 0,0 UV-I -9,7 C -8,4 C 2,3 km/h (1 Bft)
26.01.2010 02:50 -6,8 C 0,6 C -6,9 C -7,1 C -7,6 C 0,0 C 80 % 85 % 0 % 1032,4 hPa 0,0 l/m 1,9 km/h (1 Bft) NO 45 0 min 0,0 UV-I -9,7 C -7,6 C 4,2 km/h (1 Bft)
26.01.2010 02:55 -6,9 C 0,6 C -6,9 C -7,2 C -7,9 C 0,0 C 80 % 84 % 0 % 1032,4 hPa 0,0 l/m 2,1 km/h (1 Bft) NO 45 0 min 0,0 UV-I -9,8 C -7,9 C 3,2 km/h (1 Bft)
26.01.2010 03:00 -6,9 C 0,6 C -7,1 C -7,5 C -8,8 C 0,0 C 80 % 84 % 0 % 1032,4 hPa 0,0 l/m 2,9 km/h (1 Bft) NO 45 0 min 0,0 UV-I -9,8 C -8,8 C 3,2 km/h (1 Bft)
26.01.2010 03:10 -6,9 C 0,6 C -7,1 C -7,3 C -8,0 C 0,0 C 80 % 85 % 0 % 1032,4 hPa 0,0 l/m 2,1 km/h (1 Bft) NO 45 0 min 0,0 UV-I -9,8 C -8,0 C 2,7 km/h (1 Bft)
26.01.2010 03:15 -6,9 C 0,6 C -7,1 C -7,2 C -7,8 C 0,0 C 80 % 84 % 0 % 1032,6 hPa 0,0 l/m 1,4 km/h (1 Bft) NO 45 0 min 0,0 UV-I -9,8 C -7,8 C 0,0 km/h (0 Bft)
26.01.2010 03:20 -6,9 C 0,6 C -7,1 C -7,2 C -7,8 C 0,0 C 80 % 84 % 0 % 1032,6 hPa 0,0 l/m 1,9 km/h (1 Bft) NO 45 0 min 0,0 UV-I -9,8 C -7,8 C 4,5 km/h (1 Bft)
26.01.2010 03:25 -6,9 C 0,5 C -7,2 C -7,2 C -7,8 C 0,0 C 80 % 85 % 0 % 1032,6 hPa 0,0 l/m 1,8 km/h (1 Bft) NO 45 0 min 0,0 UV-I -9,8 C -7,8 C 2,3 km/h (1 Bft)
26.01.2010 03:30 -7,0 C 0,6 C -7,1 C -7,3 C -7,8 C 0,0 C 80 % 84 % 0 % 1032,6 hPa 0,0 l/m 1,8 km/h (1 Bft) NO 45 0 min 0,0 UV-I -9,9 C -7,8 C 1,6 km/h (1 Bft)
26.01.2010 03:35 -6,9 C 0,5 C -7,1 C -7,3 C -8,0 C 0,0 C 80 % 85 % 0 % 1032,6 hPa 0,0 l/m 2,1 km/h (1 Bft) NO 45 0 min 0,0 UV-I -9,8 C -8,0 C 1,8 km/h (1 Bft)
26.01.2010 03:40 -6,9 C 0,6 C -7,2 C -7,2 C -7,9 C 0,0 C 80 % 85 % 0 % 1032,6 hPa 0,0 l/m 1,4 km/h (1 Bft) NO 45 0 min 0,0 UV-I -9,8 C -7,9 C 0,0 km/h (0 Bft)
26.01.2010 03:45 -6,9 C 0,6 C -7,2 C -7,2 C -7,9 C 0,0 C 80 % 85 % 0 % 1032,6 hPa 0,0 l/m 1,1 km/h (1 Bft) NO 45 0 min 0,0 UV-I -9,8 C -7,9 C 2,6 km/h (1 Bft)
26.01.2010 03:50 -6,9 C 0,6 C -7,2 C -7,2 C -7,9 C 0,0 C 80 % 84 % 0 % 1032,6 hPa 0,0 l/m 1,4 km/h (1 Bft) NO 45 0 min 0,0 UV-I -9,8 C -7,9 C 2,6 km/h (1 Bft)
26.01.2010 03:55 -7,1 C 0,6 C -7,3 C -7,4 C -8,0 C 0,0 C 80 % 85 % 0 % 1032,6 hPa 0,0 l/m 1,4 km/h (1 Bft) NO 45 0 min 0,0 UV-I -9,9 C -8,0 C 4,0 km/h (1 Bft)
26.01.2010 04:00 -7,1 C 0,6 C -7,3 C -7,4 C -8,0 C 0,0 C 80 % 85 % 0 % 1032,6 hPa 0,0 l/m 1,8 km/h (1 Bft) NO 45 0 min 0,0 UV-I -9,9 C -8,0 C 4,0 km/h (1 Bft)
26.01.2010 04:10 -7,3 C 0,5 C -7,3 C -7,9 C -9,1 C 0,0 C 80 % 85 % 0 % 1032,6 hPa 0,0 l/m 2,7 km/h (1 Bft) NO 45 0 min 0,0 UV-I -10,1 C -9,1 C 9,7 km/h (2 Bft)
26.01.2010 04:15 -7,3 C 0,5 C -7,5 C -7,7 C -8,4 C 0,0 C 81 % 85 % 0 % 1032,6 hPa 0,0 l/m 2,1 km/h (1 Bft) NO 45 0 min 0,0 UV-I -10,0 C -8,4 C 0,0 km/h (0 Bft)
26.01.2010 04:20 -7,4 C 0,5 C -7,5 C -7,7 C -8,2 C 0,0 C 81 % 85 % 0 % 1032,6 hPa 0,0 l/m 1,6 km/h (1 Bft) NO 45 0 min 0,0 UV-I -10,1 C -8,2 C 0,0 km/h (0 Bft)
26.01.2010 04:25 -7,3 C 0,7 C -7,5 C -7,6 C -8,2 C 0,0 C 81 % 85 % 0 % 1032,6 hPa 0,0 l/m 1,4 km/h (1 Bft) NO 45 0 min 0,0 UV-I -10,0 C -8,2 C 2,7 km/h (1 Bft)
26.01.2010 04:30 -7,3 C 0,5 C -7,5 C -7,6 C -8,2 C 0,0 C 81 % 85 % 0 % 1032,6 hPa 0,0 l/m 1,1 km/h (1 Bft) NO 45 0 min 0,0 UV-I -10,0 C -8,2 C 2,3 km/h (1 Bft)
26.01.2010 04:35 -7,3 C 0,5 C -7,6 C -7,6 C -8,2 C 0,0 C 81 % 85 % 0 % 1032,5 hPa 0,0 l/m 1,8 km/h (1 Bft) NO 45 0 min 0,0 UV-I -10,0 C -8,2 C 2,1 km/h (1 Bft)
26.01.2010 04:40 -7,3 C 0,5 C -7,6 C -7,8 C -8,7 C 0,0 C 81 % 85 % 0 % 1032,5 hPa 0,0 l/m 2,3 km/h (1 Bft) NO 45 0 min 0,0 UV-I -10,0 C -8,7 C 3,1 km/h (1 Bft)
26.01.2010 04:45 -7,5 C 0,5 C -7,6 C -7,9 C -8,6 C 0,0 C 81 % 85 % 0 % 1032,5 hPa 0,0 l/m 2,1 km/h (1 Bft) NO 45 0 min 0,0 UV-I -10,2 C -8,6 C 5,3 km/h (1 Bft)
26.01.2010 04:50 -7,6 C 0,5 C -7,6 C -7,9 C -8,6 C 0,0 C 81 % 85 % 0 % 1032,5 hPa 0,0 l/m 2,1 km/h (1 Bft) NO 45 0 min 0,0 UV-I -10,3 C -8,6 C 3,2 km/h (1 Bft)
26.01.2010 04:55 -7,5 C 0,5 C -7,5 C -8,0 C -8,9 C 0,0 C 81 % 85 % 0 % 1032,5 hPa 0,0 l/m 2,4 km/h (1 Bft) NO 45 0 min 0,0 UV-I -10,2 C -8,9 C 1,9 km/h (1 Bft)
26.01.2010 05:00 -7,3 C 0,5 C -7,7 C -7,7 C -8,4 C 0,0 C 81 % 85 % 0 % 1032,5 hPa 0,0 l/m 1,4 km/h (1 Bft) NO 45 0 min 0,0 UV-I -10,0 C -8,4 C 0,0 km/h (0 Bft)
26.01.2010 05:10 -7,3 C 0,5 C -7,5 C -7,7 C -8,4 C 0,0 C 81 % 85 % 0 % 1032,5 hPa 0,0 l/m 0,6 km/h (0 Bft) NO 45 0 min 0,0 UV-I -10,0 C -8,4 C 2,1 km/h (1 Bft)
26.01.2010 05:15 -7,3 C 0,5 C -7,6 C -7,7 C -8,4 C 0,0 C 81 % 85 % 0 % 1032,2 hPa 0,0 l/m 0,5 km/h (0 Bft) NO 45 0 min 0,0 UV-I -10,0 C -8,4 C 0,0 km/h (0 Bft)
26.01.2010 05:20 -7,3 C 0,5 C -7,6 C -7,7 C -8,4 C 0,0 C 80 % 85 % 0 % 1032,2 hPa 0,0 l/m 0,8 km/h (0 Bft) NO 45 0 min 0,0 UV-I -10,1 C -8,4 C 8,7 km/h (2 Bft)
26.01.2010 05:25 -7,3 C 0,5 C -7,7 C -7,7 C -8,5 C 0,0 C 80 % 85 % 0 % 1032,2 hPa 0,0 l/m 1,4 km/h (1 Bft) NO 45 0 min 0,0 UV-I -10,1 C -8,5 C 1,9 km/h (1 Bft)
26.01.2010 05:30 -7,5 C 0,5 C -7,8 C -7,9 C -8,6 C 0,0 C 80 % 85 % 0 % 1032,2 hPa 0,0 l/m 1,4 km/h (1 Bft) NO 45 0 min 0,0 UV-I -10,3 C -8,6 C 0,0 km/h (0 Bft)
26.01.2010 05:35 -7,7 C 0,5 C -7,9 C -8,1 C -8,9 C 0,0 C 80 % 85 % 0 % 1032,2 hPa 0,0 l/m 2,1 km/h (1 Bft) NO 45 0 min 0,0 UV-I -10,5 C -8,9 C 6,8 km/h (2 Bft)
26.01.2010 05:40 -7,7 C 0,5 C -7,9 C -8,4 C -9,8 C 0,0 C 80 % 85 % 0 % 1032,2 hPa 0,0 l/m 2,7 km/h (1 Bft) NO 45 0 min 0,0 UV-I -10,5 C -9,8 C 6,3 km/h (2 Bft)
26.01.2010 05:45 -7,7 C 0,5 C -8,0 C -8,3 C -9,6 C 0,0 C 81 % 85 % 0 % 1032,2 hPa 0,0 l/m 2,6 km/h (1 Bft) NO 45 0 min 0,0 UV-I -10,4 C -9,6 C 1,9 km/h (1 Bft)
26.01.2010 05:50 -7,7 C 0,5 C -8,0 C -8,2 C -9,1 C 0,0 C 81 % 85 % 0 % 1032,2 hPa 0,0 l/m 2,1 km/h (1 Bft) NO 45 0 min 0,0 UV-I -10,4 C -9,1 C 5,0 km/h (1 Bft)
26.01.2010 05:55 -7,7 C 0,5 C -8,0 C -8,1 C -8,8 C 0,0 C 81 % 85 % 0 % 1032,2 hPa 0,0 l/m 1,3 km/h (1 Bft) NO 45 0 min 0,0 UV-I -10,4 C -8,8 C 0,0 km/h (0 Bft)
26.01.2010 06:00 -7,7 C 0,5 C -8,0 C -8,1 C -8,8 C 0,0 C 81 % 85 % 0 % 1032,2 hPa 0,0 l/m 1,6 km/h (1 Bft) NO 45 0 min 0,0 UV-I -10,4 C -8,8 C 7,9 km/h (2 Bft)
26.01.2010 06:10 -7,7 C 0,5 C -8,2 C -8,1 C -8,9 C 0,0 C 80 % 85 % 0 % 1032,2 hPa 0,0 l/m 1,6 km/h (1 Bft) NO 45 0 min 0,0 UV-I -10,5 C -8,9 C 1,9 km/h (1 Bft)
26.01.2010 06:15 -7,7 C 0,5 C -8,1 C -8,1 C -9,0 C 0,0 C 80 % 85 % 0 % 1033,3 hPa 0,0 l/m 1,0 km/h (0 Bft) NO 45 0 min 0,0 UV-I -10,5 C -9,0 C 1,8 km/h (1 Bft)
26.01.2010 06:20 -7,9 C 0,5 C -8,3 C -8,3 C -9,1 C 0,0 C 80 % 84 % 0 % 1033,3 hPa 0,0 l/m 0,8 km/h (0 Bft) NO 45 0 min 0,0 UV-I -10,7 C -9,1 C 1,9 km/h (1 Bft)
26.01.2010 06:25 -8,0 C 0,5 C -8,4 C -8,4 C -9,2 C 0,0 C 79 % 84 % 0 % 1033,3 hPa 0,0 l/m 0,6 km/h (0 Bft) NO 45 0 min 0,0 UV-I -11,0 C -9,2 C 0,0 km/h (0 Bft)
26.01.2010 06:30 -8,0 C 0,5 C -8,4 C -8,4 C -9,2 C 0,0 C 80 % 84 % 0 % 1033,3 hPa 0,0 l/m 0,5 km/h (0 Bft) NO 45 0 min 0,0 UV-I -10,8 C -9,2 C 1,8 km/h (1 Bft)
26.01.2010 06:35 -8,0 C 0,5 C -8,5 C -8,4 C -9,2 C 0,0 C 80 % 85 % 0 % 1034,0 hPa 0,0 l/m 1,0 km/h (0 Bft) NO 45 0 min 0,0 UV-I -10,8 C -9,2 C 1,8 km/h (1 Bft)
26.01.2010 06:40 -8,1 C 0,5 C -8,5 C -8,5 C -9,3 C 0,0 C 79 % 85 % 0 % 1034,0 hPa 0,0 l/m 0,8 km/h (0 Bft) NO 45 0 min 0,0 UV-I -11,1 C -9,3 C 0,0 km/h (0 Bft)
26.01.2010 06:45 -8,1 C 0,5 C -8,5 C -8,5 C -9,3 C 0,0 C 80 % 85 % 0 % 1034,0 hPa 0,0 l/m 0,3 km/h (0 Bft) NO 45 0 min 0,0 UV-I -10,9 C -9,3 C 3,5 km/h (1 Bft)
26.01.2010 06:50 -8,1 C 0,5 C -8,5 C -8,5 C -9,3 C 0,0 C 80 % 85 % 0 % 1034,0 hPa 0,0 l/m 0,6 km/h (0 Bft) NO 45 0 min 0,0 UV-I -10,9 C -9,3 C 2,6 km/h (1 Bft)
26.01.2010 06:55 -8,0 C 0,5 C -8,5 C -8,4 C -9,3 C 0,0 C 80 % 85 % 0 % 1034,0 hPa 0,0 l/m 1,4 km/h (1 Bft) NO 45 0 min 0,0 UV-I -10,8 C -9,3 C 0,0 km/h (0 Bft)
26.01.2010 07:00 -8,0 C 0,5 C -8,5 C -8,4 C -9,3 C 0,0 C 80 % 85 % 0 % 1034,0 hPa 0,0 l/m 1,4 km/h (1 Bft) NO 45 0 min 0,0 UV-I -10,8 C -9,3 C 1,8 km/h (1 Bft)
26.01.2010 07:10 -8,1 C 0,5 C -8,5 C -8,5 C -9,3 C 0,0 C 80 % 85 % 0 % 1034,0 hPa 0,0 l/m 1,1 km/h (1 Bft) NO 45 0 min 0,0 UV-I -10,9 C -9,3 C 4,3 km/h (1 Bft)
26.01.2010 07:15 -8,1 C 0,5 C -8,5 C -8,5 C -9,3 C 0,0 C 79 % 85 % 0 % 1034,0 hPa 0,0 l/m 1,3 km/h (1 Bft) NO 45 0 min 0,0 UV-I -11,1 C -9,3 C 0,0 km/h (0 Bft)
26.01.2010 07:20 -8,1 C 0,5 C -8,5 C -8,5 C -9,3 C 0,0 C 80 % 85 % 0 % 1034,0 hPa 0,0 l/m 1,1 km/h (1 Bft) NO 45 0 min 0,0 UV-I -10,9 C -9,3 C 2,6 km/h (1 Bft)
26.01.2010 07:25 -8,3 C 0,5 C -8,5 C -8,7 C -9,4 C 0,0 C 80 % 85 % 0 % 1034,0 hPa 0,0 l/m 1,3 km/h (1 Bft) NO 45 0 min 0,0 UV-I -11,1 C -9,4 C 2,1 km/h (1 Bft)
26.01.2010 07:30 -8,3 C 0,5 C -8,5 C -8,7 C -9,4 C 0,0 C 80 % 85 % 0 % 1034,0 hPa 0,0 l/m 1,8 km/h (1 Bft) NO 45 0 min 0,0 UV-I -11,1 C -9,4 C 5,6 km/h (1 Bft)
26.01.2010 07:35 -8,4 C 0,5 C -8,8 C -9,4 C -11,3 C 0,0 C 79 % 84 % 0 % 1034,0 hPa 0,0 l/m 3,5 km/h (1 Bft) NO 45 0 min 0,0 UV-I -11,4 C -11,3 C 8,0 km/h (2 Bft)
26.01.2010 07:40 -8,4 C 0,5 C -8,8 C -9,3 C -11,2 C 0,0 C 79 % 85 % 0 % 1034,0 hPa 0,0 l/m 3,2 km/h (1 Bft) NO 45 0 min 0,0 UV-I -11,4 C -11,2 C 6,0 km/h (2 Bft)
26.01.2010 07:45 -8,5 C 0,5 C -8,9 C -9,1 C -10,2 C 0,0 C 79 % 85 % 0 % 1034,0 hPa 0,0 l/m 2,3 km/h (1 Bft) NO 45 0 min 0,0 UV-I -11,5 C -10,2 C 5,1 km/h (1 Bft)
26.01.2010 07:50 -8,6 C 0,4 C -8,9 C -9,1 C -10,1 C 0,0 C 79 % 84 % 0 % 1034,0 hPa 0,0 l/m 2,1 km/h (1 Bft) NO 45 0 min 0,0 UV-I -11,6 C -10,1 C 0,0 km/h (0 Bft)
26.01.2010 07:55 -8,6 C 0,5 C -9,0 C -9,0 C -9,9 C 0,0 C 79 % 85 % 0 % 1034,0 hPa 0,0 l/m 1,9 km/h (1 Bft) NO 45 0 min 0,0 UV-I -11,6 C -9,9 C 4,2 km/h (1 Bft)
26.01.2010 08:00 -8,5 C 0,5 C -9,1 C -9,1 C -10,2 C 0,0 C 79 % 84 % 0 % 1034,0 hPa 0,0 l/m 1,9 km/h (1 Bft) NO 45 0 min 0,0 UV-I -11,5 C -10,2 C 1,8 km/h (1 Bft)
26.01.2010 08:10 -8,8 C 0,5 C -9,3 C -9,3 C -10,3 C 0,0 C 79 % 85 % 0 % 1034,0 hPa 0,0 l/m 1,3 km/h (1 Bft) NO 45 0 min 0,0 UV-I -11,8 C -10,3 C 0,0 km/h (0 Bft)
26.01.2010 08:15 -8,7 C 0,5 C -9,3 C -9,4 C -10,7 C 0,0 C 80 % 85 % 0 % 1034,0 hPa 0,0 l/m 1,8 km/h (1 Bft) NO 45 0 min 0,0 UV-I -11,5 C -10,7 C 2,7 km/h (1 Bft)
26.01.2010 08:20 -8,9 C 0,5 C -9,3 C -9,5 C -10,7 C 0,0 C 79 % 85 % 0 % 1034,0 hPa 0,0 l/m 1,8 km/h (1 Bft) NO 45 0 min 0,0 UV-I -11,9 C -10,7 C 3,7 km/h (1 Bft)
26.01.2010 08:25 -8,9 C 0,5 C -9,3 C -9,7 C -11,2 C 0,0 C 79 % 85 % 0 % 1034,0 hPa 0,0 l/m 2,1 km/h (1 Bft) NO 45 0 min 0,0 UV-I -11,9 C -11,2 C 4,7 km/h (1 Bft)
26.01.2010 08:30 -8,9 C 0,5 C -9,5 C -9,9 C -11,8 C 0,0 C 79 % 85 % 0 % 1034,0 hPa 0,0 l/m 2,6 km/h (1 Bft) NO 45 0 min 0,0 UV-I -11,9 C -11,8 C 2,7 km/h (1 Bft)
26.01.2010 08:35 -9,2 C 0,5 C -9,7 C -9,9 C -11,3 C 0,0 C 79 % 85 % 0 % 1034,0 hPa 0,0 l/m 2,1 km/h (1 Bft) NO 45 0 min 0,0 UV-I -12,2 C -11,3 C 2,6 km/h (1 Bft)
26.01.2010 08:40 -9,3 C 0,5 C -9,7 C -9,9 C -11,1 C 0,0 C 79 % 85 % 0 % 1034,0 hPa 0,0 l/m 1,4 km/h (1 Bft) NO 45 0 min 0,0 UV-I -12,2 C -11,1 C 0,0 km/h (0 Bft)
26.01.2010 08:45 -9,3 C 0,5 C -9,7 C -10,0 C -11,3 C 0,0 C 79 % 85 % 0 % 1034,0 hPa 0,0 l/m 1,6 km/h (1 Bft) NO 45 0 min 0,0 UV-I -12,2 C -11,3 C 10,3 km/h (2 Bft)
26.01.2010 08:50 -9,3 C 0,5 C -10,0 C -10,4 C -12,6 C 0,0 C 79 % 84 % 0 % 1034,0 hPa 0,0 l/m 2,7 km/h (1 Bft) NO 45 0 min 0,0 UV-I -12,2 C -12,6 C 2,6 km/h (1 Bft)
26.01.2010 08:55 -9,3 C 0,5 C -10,0 C -10,4 C -12,5 C 0,0 C 79 % 85 % 0 % 1034,0 hPa 0,0 l/m 2,6 km/h (1 Bft) NO 45 0 min 0,0 UV-I -12,2 C -12,5 C 1,6 km/h (1 Bft)
26.01.2010 09:00 -9,3 C 0,5 C -10,1 C -10,1 C -11,6 C 0,0 C 78 % 84 % 0 % 1034,0 hPa 0,0 l/m 1,9 km/h (1 Bft) NO 45 0 min 0,0 UV-I -12,4 C -11,6 C 7,1 km/h (2 Bft)
26.01.2010 09:10 -9,5 C 0,5 C -10,3 C -10,3 C -12,0 C 0,0 C 78 % 85 % 0 % 1034,0 hPa 0,0 l/m 2,4 km/h (1 Bft) NO 45 0 min 0,0 UV-I -12,6 C -12,0 C 3,5 km/h (1 Bft)
26.01.2010 09:15 -9,7 C 0,5 C -10,3 C -10,2 C -11,2 C 0,0 C 78 % 84 % 0 % 1034,0 hPa 0,0 l/m 1,4 km/h (1 Bft) NO 45 0 min 0,0 UV-I -12,8 C -11,2 C 2,7 km/h (1 Bft)
26.01.2010 09:20 -9,7 C 0,5 C -10,5 C -10,2 C -11,3 C 0,0 C 78 % 84 % 0 % 1034,0 hPa 0,0 l/m 1,8 km/h (1 Bft) NO 45 0 min 0,0 UV-I -12,8 C -11,3 C 2,9 km/h (1 Bft)
26.01.2010 09:25 -9,8 C 0,5 C -10,3 C -10,3 C -11,2 C 0,0 C 79 % 85 % 0 % 1034,0 hPa 0,0 l/m 1,3 km/h (1 Bft) NO 45 0 min 0,0 UV-I -12,7 C -11,2 C 1,9 km/h (1 Bft)
26.01.2010 09:30 -9,5 C 0,5 C -10,3 C -10,1 C -11,2 C 0,0 C 79 % 85 % 0 % 1034,0 hPa 0,0 l/m 1,1 km/h (1 Bft) NO 45 0 min 0,0 UV-I -12,4 C -11,2 C 4,3 km/h (1 Bft)
26.01.2010 09:35 -9,5 C 0,5 C -10,3 C -10,1 C -11,2 C 0,0 C 78 % 85 % 0 % 1034,0 hPa 0,0 l/m 1,4 km/h (1 Bft) NO 45 0 min 0,0 UV-I -12,6 C -11,2 C 2,6 km/h (1 Bft)
26.01.2010 09:40 -9,5 C 0,5 C -10,4 C -10,1 C -11,3 C 0,0 C 78 % 84 % 0 % 1034,0 hPa 0,0 l/m 1,3 km/h (1 Bft) NO 45 0 min 0,0 UV-I -12,6 C -11,3 C 0,0 km/h (0 Bft)
26.01.2010 09:45 -9,6 C 0,4 C -10,4 C -10,1 C -11,2 C 0,0 C 78 % 84 % 0 % 1034,0 hPa 0,0 l/m 1,8 km/h (1 Bft) NO 45 0 min 0,0 UV-I -12,7 C -11,2 C 7,2 km/h (2 Bft)
26.01.2010 09:50 -9,5 C 0,4 C -10,3 C -10,2 C -11,6 C 0,0 C 78 % 85 % 0 % 1034,0 hPa 0,0 l/m 2,1 km/h (1 Bft) NO 45 0 min 0,0 UV-I -12,6 C -11,6 C 3,1 km/h (1 Bft)
26.01.2010 09:55 -9,6 C 0,4 C -10,5 C -10,3 C -11,6 C 0,0 C 77 % 84 % 0 % 1034,0 hPa 0,0 l/m 2,1 km/h (1 Bft) NO 45 0 min 0,0 UV-I -12,9 C -11,6 C 3,4 km/h (1 Bft)
26.01.2010 10:00 -9,6 C 0,4 C -10,4 C -10,1 C -11,1 C 0,0 C 77 % 84 % 0 % 1034,0 hPa 0,0 l/m 1,6 km/h (1 Bft) NO 45 0 min 0,0 UV-I -12,9 C -11,1 C 1,6 km/h (1 Bft)
26.01.2010 10:10 -9,5 C 0,4 C -10,4 C -10,0 C -10,9 C 0,0 C 78 % 84 % 0 % 1034,0 hPa 0,0 l/m 0,6 km/h (0 Bft) NO 45 0 min 0,0 UV-I -12,6 C -10,9 C 0,0 km/h (0 Bft)
26.01.2010 10:15 -9,3 C 0,4 C -10,4 C -9,8 C -10,8 C 0,0 C 77 % 83 % 0 % 1034,0 hPa 0,0 l/m 1,1 km/h (1 Bft) NO 45 0 min 0,0 UV-I -12,6 C -10,8 C 2,3 km/h (1 Bft)
26.01.2010 10:20 -9,3 C 0,3 C -10,4 C -9,8 C -10,7 C 0,0 C 77 % 84 % 0 % 1034,0 hPa 0,0 l/m 1,4 km/h (1 Bft) NO 45 0 min 0,0 UV-I -12,6 C -10,7 C 5,6 km/h (1 Bft)
26.01.2010 10:25 -9,5 C 0,3 C -10,4 C -10,0 C -11,1 C 0,0 C 77 % 83 % 0 % 1034,0 hPa 0,0 l/m 2,3 km/h (1 Bft) NO 45 0 min 0,0 UV-I -12,8 C -11,1 C 3,1 km/h (1 Bft)
26.01.2010 10:30 -9,3 C 0,3 C -10,4 C -9,8 C -10,9 C 0,0 C 77 % 83 % 0 % 1034,0 hPa 0,0 l/m 2,3 km/h (1 Bft) NO 45 0 min 0,0 UV-I -12,6 C -10,9 C 1,8 km/h (1 Bft)
26.01.2010 10:35 -9,4 C 0,3 C -10,3 C -9,5 C -9,7 C 0,0 C 77 % 83 % 0 % 1034,0 hPa 0,0 l/m 1,0 km/h (0 Bft) NO 45 0 min 0,0 UV-I -12,7 C -9,7 C 1,6 km/h (1 Bft)
26.01.2010 10:40 -9,3 C 0,3 C -10,1 C -9,2 C -9,2 C 0,1 C 77 % 83 % 3 % 1034,0 hPa 0,0 l/m 1,0 km/h (0 Bft) NO 45 0 min 0,0 UV-I -12,6 C -9,2 C 2,3 km/h (1 Bft)
26.01.2010 10:45 -9,2 C 0,3 C -10,1 C -9,2 C -9,3 C 0,0 C 76 % 83 % 0 % 1034,0 hPa 0,0 l/m 1,8 km/h (1 Bft) NO 45 0 min 0,0 UV-I -12,6 C -9,3 C 5,5 km/h (1 Bft)
26.01.2010 10:50 -9,1 C 0,3 C -10,1 C -9,5 C -10,3 C 0,0 C 76 % 83 % 0 % 1034,0 hPa 0,0 l/m 2,4 km/h (1 Bft) NO 45 0 min 0,0 UV-I -12,5 C -10,3 C 1,9 km/h (1 Bft)
26.01.2010 10:55 -9,3 C 0,3 C -10,1 C -9,7 C -10,4 C 0,0 C 76 % 83 % 0 % 1036,4 hPa 0,0 l/m 2,4 km/h (1 Bft) NO 45 0 min 0,0 UV-I -12,7 C -10,4 C 0,0 km/h (0 Bft)
26.01.2010 11:00 -9,2 C 0,3 C -10,1 C -9,3 C -9,4 C 0,0 C 76 % 82 % 0 % 1036,4 hPa 0,0 l/m 1,4 km/h (1 Bft) NO 45 0 min 0,0 UV-I -12,6 C -9,4 C 1,9 km/h (1 Bft)
26.01.2010 11:10 -8,9 C 0,3 C -10,1 C -9,1 C -9,6 C 0,0 C 75 % 81 % 0 % 1036,4 hPa 0,0 l/m 1,9 km/h (1 Bft) NO 45 0 min 0,1 UV-I -12,5 C -9,6 C 0,0 km/h (0 Bft)
26.01.2010 11:15 -9,1 C 0,3 C -10,1 C -9,1 C -9,2 C 0,0 C 74 % 81 % 0 % 1036,4 hPa 0,0 l/m 1,6 km/h (1 Bft) NO 45 0 min 0,1 UV-I -12,9 C -9,2 C 3,9 km/h (1 Bft)
26.01.2010 11:20 -9,1 C 0,3 C -10,1 C -9,0 C -9,0 C 0,1 C 75 % 81 % 3 % 1036,4 hPa 0,0 l/m 1,8 km/h (1 Bft) NO 45 0 min 0,1 UV-I -12,7 C -9,0 C 3,4 km/h (1 Bft)
26.01.2010 11:25 -8,9 C 0,3 C -10,0 C -8,4 C -8,4 C 0,5 C 74 % 81 % 13 % 1036,4 hPa 0,0 l/m 1,8 km/h (1 Bft) NO 45 0 min 0,1 UV-I -12,7 C -8,4 C 0,0 km/h (0 Bft)
26.01.2010 11:30 -8,9 C 0,3 C -10,1 C -8,2 C -8,2 C 0,7 C 74 % 81 % 18 % 1036,4 hPa 0,0 l/m 1,8 km/h (1 Bft) NO 45 0 min 0,1 UV-I -12,7 C -8,2 C 4,2 km/h (1 Bft)
26.01.2010 11:35 -8,9 C 0,3 C -10,0 C -8,4 C -8,4 C 0,5 C 74 % 81 % 13 % 1036,5 hPa 0,0 l/m 1,6 km/h (1 Bft) NO 45 0 min 0,1 UV-I -12,7 C -8,4 C 0,0 km/h (0 Bft)
26.01.2010 11:40 -8,7 C 0,3 C -9,9 C -8,4 C -8,4 C 0,3 C 74 % 81 % 8 % 1036,5 hPa 0,0 l/m 1,9 km/h (1 Bft) NO 45 0 min 0,1 UV-I -12,5 C -8,4 C 4,0 km/h (1 Bft)
26.01.2010 11:45 -8,7 C 0,3 C -9,7 C -8,7 C -8,7 C 0,0 C 74 % 81 % 0 % 1036,5 hPa 0,0 l/m 2,3 km/h (1 Bft) NO 45 0 min 0,1 UV-I -12,5 C -8,7 C 1,8 km/h (1 Bft)
26.01.2010 11:50 -8,7 C 0,3 C -9,7 C -8,0 C -8,0 C 0,7 C 74 % 81 % 18 % 1036,5 hPa 0,0 l/m 1,6 km/h (1 Bft) NO 45 0 min 0,1 UV-I -12,5 C -8,0 C 0,0 km/h (0 Bft)
26.01.2010 11:55 -8,7 C 0,3 C -9,7 C -7,9 C -7,9 C 0,8 C 73 % 81 % 21 % 1036,8 hPa 0,0 l/m 1,1 km/h (1 Bft) NO 45 0 min 0,1 UV-I -12,6 C -7,9 C 6,1 km/h (2 Bft)
26.01.2010 12:00 -8,7 C 0,3 C -9,7 C -8,0 C -8,0 C 0,7 C 73 % 80 % 18 % 1036,8 hPa 0,0 l/m 1,4 km/h (1 Bft) NO 45 0 min 0,1 UV-I -12,6 C -8,0 C 5,0 km/h (1 Bft)
26.01.2010 12:10 -8,5 C 0,3 C -9,5 C -8,2 C -8,2 C 0,3 C 73 % 80 % 8 % 1036,8 hPa 0,0 l/m 1,6 km/h (1 Bft) NO 45 0 min 0,1 UV-I -12,4 C -8,2 C 3,2 km/h (1 Bft)
26.01.2010 12:15 -8,4 C 0,3 C -9,3 C -8,1 C -8,1 C 0,3 C 73 % 80 % 8 % 1036,8 hPa 0,0 l/m 1,4 km/h (1 Bft) NO 45 0 min 0,1 UV-I -12,4 C -8,1 C 2,6 km/h (1 Bft)
26.01.2010 12:20 -8,4 C 0,3 C -9,5 C -8,0 C -8,0 C 0,4 C 73 % 80 % 11 % 1036,8 hPa 0,0 l/m 1,1 km/h (1 Bft) NO 45 0 min 0,1 UV-I -12,4 C -8,0 C 0,0 km/h (0 Bft)
26.01.2010 12:25 -8,3 C 0,3 C -9,5 C -7,3 C -7,3 C 1,0 C 73 % 80 % 26 % 1036,8 hPa 0,0 l/m 1,1 km/h (1 Bft) NO 45 0 min 0,1 UV-I -12,3 C -7,3 C 0,0 km/h (0 Bft)
26.01.2010 12:30 -8,3 C 0,3 C -9,3 C -7,2 C -7,2 C 1,1 C 72 % 79 % 29 % 1036,8 hPa 0,0 l/m 1,1 km/h (1 Bft) NO 45 0 min 0,1 UV-I -12,4 C -7,2 C 0,0 km/h (0 Bft)
26.01.2010 12:35 -8,1 C 0,3 C -9,2 C -7,5 C -7,5 C 0,6 C 72 % 79 % 16 % 1036,8 hPa 0,0 l/m 2,1 km/h (1 Bft) NO 45 0 min 0,1 UV-I -12,2 C -7,5 C 2,6 km/h (1 Bft)
26.01.2010 12:40 -8,1 C 0,3 C -9,2 C -8,2 C -8,3 C 0,0 C 72 % 79 % 0 % 1036,8 hPa 0,0 l/m 2,7 km/h (1 Bft) NO 45 0 min 0,1 UV-I -12,2 C -8,3 C 6,1 km/h (2 Bft)
26.01.2010 12:45 -8,1 C 0,3 C -9,2 C -8,2 C -8,3 C 0,0 C 72 % 79 % 0 % 1036,8 hPa 0,0 l/m 2,7 km/h (1 Bft) NO 45 0 min 0,1 UV-I -12,2 C -8,3 C 0,0 km/h (0 Bft)
26.01.2010 12:50 -8,1 C 0,3 C -9,1 C -7,4 C -7,4 C 0,7 C 72 % 79 % 18 % 1036,8 hPa 0,0 l/m 1,6 km/h (1 Bft) NO 45 0 min 0,1 UV-I -12,2 C -7,4 C 2,3 km/h (1 Bft)
26.01.2010 12:55 -7,9 C 0,3 C -9,0 C -7,3 C -7,3 C 0,6 C 72 % 79 % 16 % 1036,8 hPa 0,0 l/m 0,8 km/h (0 Bft) NO 45 0 min 0,1 UV-I -12,0 C -7,3 C 0,0 km/h (0 Bft)
26.01.2010 13:00 -7,9 C 0,3 C -8,9 C -7,1 C -7,1 C 0,8 C 72 % 78 % 21 % 1036,8 hPa 0,0 l/m 1,3 km/h (1 Bft) NO 45 0 min 0,1 UV-I -12,0 C -7,1 C 0,0 km/h (0 Bft)
26.01.2010 13:10 -7,9 C 0,3 C -8,8 C -6,8 C -6,8 C 1,1 C 72 % 79 % 29 % 1036,8 hPa 0,0 l/m 1,4 km/h (1 Bft) NO 45 0 min 0,1 UV-I -12,0 C -6,8 C 2,1 km/h (1 Bft)
26.01.2010 13:15 -7,7 C 0,3 C -8,5 C -6,3 C -6,3 C 1,4 C 72 % 78 % 37 % 1036,8 hPa 0,0 l/m 1,4 km/h (1 Bft) NO 45 0 min 0,1 UV-I -11,8 C -6,3 C 5,6 km/h (1 Bft)
26.01.2010 13:20 -7,7 C 0,3 C -8,5 C -5,9 C -5,9 C 1,8 C 72 % 79 % 47 % 1036,8 hPa 0,0 l/m 1,8 km/h (1 Bft) NO 45 0 min 0,1 UV-I -11,8 C -5,9 C 2,6 km/h (1 Bft)
26.01.2010 13:25 -7,7 C 0,3 C -8,5 C -6,2 C -6,2 C 1,5 C 72 % 78 % 39 % 1036,8 hPa 0,0 l/m 2,4 km/h (1 Bft) NO 45 0 min 0,1 UV-I -11,8 C -6,2 C 2,9 km/h (1 Bft)
26.01.2010 13:30 -7,7 C 0,3 C -8,3 C -6,2 C -6,2 C 1,5 C 72 % 78 % 39 % 1036,8 hPa 0,0 l/m 2,4 km/h (1 Bft) NO 45 0 min 0,1 UV-I -11,8 C -6,2 C 3,2 km/h (1 Bft)
26.01.2010 13:35 -7,7 C 0,3 C -8,3 C -5,4 C -5,4 C 2,3 C 72 % 78 % 61 % 1036,8 hPa 0,0 l/m 2,1 km/h (1 Bft) NO 45 0 min 0,1 UV-I -11,8 C -5,4 C 1,8 km/h (1 Bft)
26.01.2010 13:40 -7,6 C 0,3 C -8,1 C -5,8 C -5,8 C 1,8 C 72 % 78 % 47 % 1036,8 hPa 0,0 l/m 2,7 km/h (1 Bft) NO 45 0 min 0,1 UV-I -11,8 C -5,8 C 6,3 km/h (2 Bft)
26.01.2010 13:45 -7,5 C 0,3 C -8,3 C -6,6 C -6,6 C 0,9 C 71 % 77 % 24 % 1036,8 hPa 0,0 l/m 3,5 km/h (1 Bft) NO 45 0 min 0,1 UV-I -11,8 C -6,6 C 6,3 km/h (2 Bft)
26.01.2010 13:50 -7,7 C 0,3 C -8,4 C -6,9 C -6,9 C 0,8 C 70 % 76 % 21 % 1036,8 hPa 0,0 l/m 3,9 km/h (1 Bft) NO 45 0 min 0,1 UV-I -12,2 C -6,9 C 8,4 km/h (2 Bft)
26.01.2010 13:55 -7,7 C 0,3 C -8,4 C -7,1 C -7,1 C 0,6 C 70 % 76 % 16 % 1036,8 hPa 0,0 l/m 3,9 km/h (1 Bft) NO 45 0 min 0,0 UV-I -12,2 C -7,1 C 3,1 km/h (1 Bft)
26.01.2010 14:00 -7,7 C 0,3 C -8,3 C -6,9 C -6,9 C 0,8 C 70 % 76 % 21 % 1036,8 hPa 0,0 l/m 3,5 km/h (1 Bft) NO 45 0 min 0,0 UV-I -12,2 C -6,9 C 5,1 km/h (1 Bft)
26.01.2010 14:10 -7,7 C 0,3 C -8,4 C -5,7 C -5,7 C 2,0 C 71 % 76 % 53 % 1036,8 hPa 0,0 l/m 2,3 km/h (1 Bft) NO 45 0 min 0,0 UV-I -12,0 C -5,7 C 2,1 km/h (1 Bft)
26.01.2010 14:15 -7,7 C 0,3 C -8,3 C -5,2 C -5,2 C 2,5 C 71 % 77 % 66 % 1036,8 hPa 0,0 l/m 1,4 km/h (1 Bft) NO 45 0 min 0,0 UV-I -12,0 C -5,2 C 4,7 km/h (1 Bft)
26.01.2010 14:20 -7,7 C 0,3 C -8,3 C -5,0 C -5,0 C 2,7 C 71 % 76 % 71 % 1036,8 hPa 0,0 l/m 1,1 km/h (1 Bft) NO 45 0 min 0,0 UV-I -12,0 C -5,0 C 2,7 km/h (1 Bft)
26.01.2010 14:25 -7,7 C 0,3 C -8,4 C -5,0 C -5,0 C 2,7 C 71 % 76 % 71 % 1036,8 hPa 0,0 l/m 1,9 km/h (1 Bft) NO 45 0 min 0,0 UV-I -12,0 C -5,0 C 2,9 km/h (1 Bft)
26.01.2010 14:30 -7,7 C 0,3 C -8,3 C -5,5 C -5,5 C 2,2 C 71 % 76 % 58 % 1036,8 hPa 0,0 l/m 2,3 km/h (1 Bft) NO 45 0 min 0,0 UV-I -12,0 C -5,5 C 3,1 km/h (1 Bft)
26.01.2010 14:35 -7,7 C 0,3 C -7,6 C -5,4 C -5,4 C 2,3 C 71 % 76 % 61 % 1036,8 hPa 0,0 l/m 2,1 km/h (1 Bft) NO 45 0 min 0,0 UV-I -12,0 C -5,4 C 5,1 km/h (1 Bft)
26.01.2010 14:40 -7,7 C 0,3 C -6,9 C -5,4 C -5,4 C 2,3 C 71 % 75 % 61 % 1036,8 hPa 0,0 l/m 1,9 km/h (1 Bft) NO 45 0 min 0,0 UV-I -12,0 C -5,4 C 1,8 km/h (1 Bft)
26.01.2010 14:45 -7,7 C 0,3 C -6,5 C -5,9 C -5,9 C 1,8 C 71 % 73 % 47 % 1036,8 hPa 0,0 l/m 2,3 km/h (1 Bft) NO 45 0 min 0,0 UV-I -12,0 C -5,9 C 4,3 km/h (1 Bft)
26.01.2010 14:50 -7,8 C 0,3 C -6,7 C -6,2 C -6,2 C 1,6 C 71 % 72 % 42 % 1036,8 hPa 0,0 l/m 2,4 km/h (1 Bft) NO 45 0 min 0,0 UV-I -12,1 C -6,2 C 0,0 km/h (0 Bft)
26.01.2010 14:55 -7,8 C 0,3 C -7,3 C -6,3 C -6,3 C 1,5 C 71 % 72 % 39 % 1036,2 hPa 0,0 l/m 2,4 km/h (1 Bft) NO 45 0 min 0,0 UV-I -12,1 C -6,3 C 4,2 km/h (1 Bft)
26.01.2010 15:00 -7,7 C 0,3 C -7,7 C -6,0 C -6,0 C 1,7 C 71 % 73 % 45 % 1036,2 hPa 0,0 l/m 1,6 km/h (1 Bft) NO 45 0 min 0,0 UV-I -12,0 C -6,0 C 0,0 km/h (0 Bft)
26.01.2010 15:10 -7,9 C 0,3 C -7,9 C -6,3 C -6,3 C 1,6 C 71 % 75 % 42 % 1036,2 hPa 0,0 l/m 1,4 km/h (1 Bft) NO 45 0 min 0,0 UV-I -12,2 C -6,3 C 0,0 km/h (0 Bft)
26.01.2010 15:15 -7,7 C 0,3 C -8,0 C -6,4 C -6,4 C 1,3 C 71 % 75 % 34 % 1036,2 hPa 0,0 l/m 1,8 km/h (1 Bft) NO 45 0 min 0,0 UV-I -12,0 C -6,4 C 0,0 km/h (0 Bft)
26.01.2010 15:20 -7,9 C 0,3 C -8,0 C -6,5 C -6,5 C 1,4 C 72 % 75 % 37 % 1036,2 hPa 0,0 l/m 1,8 km/h (1 Bft) NO 45 0 min 0,0 UV-I -12,0 C -6,5 C 3,2 km/h (1 Bft)
26.01.2010 15:25 -7,7 C 0,3 C -8,1 C -6,8 C -6,8 C 0,9 C 71 % 75 % 24 % 1036,2 hPa 0,0 l/m 1,6 km/h (1 Bft) NO 45 0 min 0,0 UV-I -12,0 C -6,8 C 2,7 km/h (1 Bft)
26.01.2010 15:30 -7,9 C 0,3 C -8,1 C -7,0 C -7,0 C 0,9 C 72 % 75 % 24 % 1036,2 hPa 0,0 l/m 1,9 km/h (1 Bft) NO 45 0 min 0,0 UV-I -12,0 C -7,0 C 2,6 km/h (1 Bft)
26.01.2010 15:35 -7,9 C 0,3 C -8,2 C -8,0 C -8,1 C 0,0 C 72 % 76 % 0 % 1036,6 hPa 0,0 l/m 2,6 km/h (1 Bft) NO 45 0 min 0,0 UV-I -12,0 C -8,1 C 5,8 km/h (2 Bft)
26.01.2010 15:40 -8,0 C 0,3 C -8,3 C -8,3 C -8,8 C 0,0 C 72 % 76 % 0 % 1036,6 hPa 0,0 l/m 3,2 km/h (1 Bft) NO 45 0 min 0,0 UV-I -12,1 C -8,8 C 6,6 km/h (2 Bft)
26.01.2010 15:45 -8,1 C 0,3 C -8,5 C -8,4 C -9,0 C 0,0 C 72 % 76 % 0 % 1036,6 hPa 0,0 l/m 2,9 km/h (1 Bft) NO 45 0 min 0,0 UV-I -12,2 C -9,0 C 3,1 km/h (1 Bft)
26.01.2010 15:50 -8,1 C 0,3 C -8,5 C -8,3 C -8,7 C 0,0 C 72 % 76 % 0 % 1036,6 hPa 0,0 l/m 2,1 km/h (1 Bft) NO 45 0 min 0,0 UV-I -12,2 C -8,7 C 1,6 km/h (1 Bft)
26.01.2010 15:55 -8,1 C 0,3 C -8,5 C -8,4 C -9,0 C 0,0 C 72 % 77 % 0 % 1036,6 hPa 0,0 l/m 1,1 km/h (1 Bft) NO 45 0 min 0,0 UV-I -12,2 C -9,0 C 1,6 km/h (1 Bft)
26.01.2010 16:00 -8,1 C 0,3 C -8,5 C -8,5 C -9,3 C 0,0 C 72 % 77 % 0 % 1036,6 hPa 0,0 l/m 1,1 km/h (1 Bft) NO 45 0 min 0,0 UV-I -12,2 C -9,3 C 3,5 km/h (1 Bft)
26.01.2010 16:06 -8,3 C 0,3 C -8,9 C -8,7 C -9,6 C 0,0 C 72 % 77 % 0 % 1036,6 hPa 0,0 l/m 1,4 km/h (1 Bft) N 0 0 min 0,0 UV-I -12,4 C -9,6 C 0,0 km/h (0 Bft)
26.01.2010 16:07 -8,5 C 0,3 C -8,9 C -8,9 C -9,8 C 0,0 C 72 % 77 % 0 % 1036,6 hPa 0,0 l/m 1,8 km/h (1 Bft) NO 45 0 min 0,0 UV-I -12,6 C -9,8 C 3,2 km/h (1 Bft)
26.01.2010 16:12 -8,5 C 0,3 C -8,9 C -9,0 C -10,0 C 0,0 C 72 % 77 % 0 % 1036,6 hPa 0,0 l/m 1,3 km/h (1 Bft) NO 45 0 min 0,0 UV-I -12,6 C -10,0 C 2,3 km/h (1 Bft)
26.01.2010 16:13 -8,5 C 0,3 C -8,9 C -9,0 C -10,0 C 0,0 C 72 % 77 % 0 % 1036,6 hPa 0,0 l/m 1,3 km/h (1 Bft) NO 45 0 min 0,0 UV-I -12,6 C -10,0 C 2,3 km/h (1 Bft)
26.01.2010 16:15 -8,5 C 0,3 C -8,9 C -9,0 C -10,0 C 0,0 C 72 % 77 % 0 % 1036,6 hPa 0,0 l/m 1,3 km/h (1 Bft) NO 45 0 min 0,0 UV-I -12,6 C -10,0 C 2,3 km/h (1 Bft)
26.01.2010 16:44 -9,3 C 1,3 C -9,2 C -9,5 C -10,5 C 0,0 C 72 % 77 % 0 % 1036,6 hPa 0,0 l/m 0,0 km/h (0 Bft) NO 45 0 min 0,0 UV-I -13,4 C -10,5 C 0,0 km/h (0 Bft)
26.01.2010 16:47 -9,3 C 0,3 C -9,3 C -9,9 C -11,2 C 0,0 C 74 % 79 % 0 % 1036,6 hPa 0,0 l/m 0,2 km/h (0 Bft) NO 45 0 min 0,0 UV-I -13,1 C -11,2 C 0,0 km/h (0 Bft)
26.01.2010 16:52 -9,3 C 0,2 C -9,5 C -10,1 C -11,7 C 0,0 C 74 % 79 % 0 % 1036,6 hPa 0,0 l/m 0,0 km/h (0 Bft) NO 45 0 min 0,0 UV-I -13,1 C -11,7 C 0,0 km/h (0 Bft)
26.01.2010 16:57 -9,3 C 0,3 C -9,5 C -10,2 C -11,9 C 0,0 C 74 % 79 % 0 % 1036,6 hPa 0,0 l/m 0,0 km/h (0 Bft) NO 45 0 min 0,0 UV-I -13,1 C -11,9 C 0,0 km/h (0 Bft)
26.01.2010 17:02 -9,5 C 0,2 C -9,7 C -10,4 C -12,1 C 0,0 C 74 % 79 % 0 % 1036,6 hPa 0,0 l/m 0,0 km/h (0 Bft) NO 45 0 min 0,0 UV-I -13,2 C -12,1 C 0,0 km/h (0 Bft)
26.01.2010 17:07 -9,6 C 0,2 C -9,9 C -10,5 C -12,4 C 0,0 C 75 % 79 % 0 % 1036,6 hPa 0,0 l/m 0,0 km/h (0 Bft) NO 45 0 min 0,0 UV-I -13,2 C -12,4 C 0,0 km/h (0 Bft)
26.01.2010 17:10 -9,6 C 0,2 C -9,9 C -10,5 C -12,4 C 0,0 C 75 % 79 % 0 % 1036,6 hPa 0,0 l/m 0,0 km/h (0 Bft) NO 45 0 min 0,0 UV-I -13,2 C -12,4 C 0,0 km/h (0 Bft)
26.01.2010 17:15 -9,5 C 0,2 C -9,9 C -10,6 C -12,8 C 0,0 C 75 % 79 % 0 % 1036,6 hPa 0,0 l/m 0,0 km/h (0 Bft) NO 45 0 min 0,0 UV-I -13,1 C -12,8 C 0,0 km/h (0 Bft)
26.01.2010 17:20 -9,7 C 0,2 C -10,0 C -10,8 C -12,9 C 0,0 C 75 % 80 % 0 % 1036,6 hPa 0,0 l/m 0,0 km/h (0 Bft) NO 45 0 min 0,0 UV-I -13,3 C -12,9 C 0,0 km/h (0 Bft)
26.01.2010 17:25 -9,7 C 0,2 C -10,1 C -10,8 C -13,1 C 0,0 C 75 % 80 % 0 % 1036,6 hPa 0,0 l/m 0,0 km/h (0 Bft) NO 45 0 min 0,0 UV-I -13,3 C -13,1 C 0,0 km/h (0 Bft)
26.01.2010 17:30 -9,7 C 0,2 C -10,2 C -10,9 C -13,2 C 0,0 C 75 % 80 % 0 % 1036,6 hPa 0,0 l/m 0,0 km/h (0 Bft) NO 45 0 min 0,0 UV-I -13,3 C -13,2 C 0,0 km/h (0 Bft)
26.01.2010 17:35 -9,9 C 0,2 C -10,3 C -11,0 C -13,2 C 0,0 C 75 % 80 % 0 % 1036,6 hPa 0,0 l/m 0,0 km/h (0 Bft) NO 45 0 min 0,0 UV-I -13,5 C -13,2 C 0,0 km/h (0 Bft)
26.01.2010 17:40 -10,1 C 0,2 C -10,5 C -11,1 C -13,2 C 0,0 C 75 % 81 % 0 % 1036,6 hPa 0,0 l/m 0,0 km/h (0 Bft) NO 45 0 min 0,0 UV-I -13,7 C -13,2 C 1,8 km/h (1 Bft)
26.01.2010 17:45 -10,1 C 0,2 C -10,5 C -11,1 C -13,1 C 0,0 C 76 % 81 % 0 % 1036,6 hPa 0,0 l/m 0,0 km/h (0 Bft) NO 45 0 min 0,0 UV-I -13,5 C -13,1 C 0,0 km/h (0 Bft)
26.01.2010 17:50 -10,1 C 0,2 C -10,5 C -11,1 C -13,1 C 0,0 C 76 % 81 % 0 % 1036,6 hPa 0,0 l/m 0,2 km/h (0 Bft) NO 45 0 min 0,0 UV-I -13,5 C -13,1 C 0,0 km/h (0 Bft)
26.01.2010 17:55 -10,3 C 0,2 C -10,5 C -11,2 C -13,1 C 0,0 C 76 % 81 % 0 % 1036,6 hPa 0,0 l/m 0,2 km/h (0 Bft) NO 45 0 min 0,0 UV-I -13,7 C -13,1 C 0,0 km/h (0 Bft)
26.01.2010 18:00 -10,3 C 0,2 C -10,5 C -11,2 C -13,1 C 0,0 C 76 % 81 % 0 % 1036,6 hPa 0,0 l/m 0,2 km/h (0 Bft) NO 45 0 min 0,0 UV-I -13,7 C -13,1 C 0,0 km/h (0 Bft)
26.01.2010 18:10 -10,3 C 0,2 C -10,9 C -11,4 C -13,6 C 0,0 C 76 % 80 % 0 % 1036,6 hPa 0,0 l/m 0,0 km/h (0 Bft) NO 45 0 min 0,0 UV-I -13,7 C -13,6 C 0,0 km/h (0 Bft)
26.01.2010 18:15 -10,5 C 0,2 C -11,1 C -11,6 C -13,7 C 0,0 C 76 % 81 % 0 % 1036,6 hPa 0,0 l/m 0,0 km/h (0 Bft) NO 45 0 min 0,0 UV-I -13,9 C -13,7 C 0,0 km/h (0 Bft)
26.01.2010 18:20 -10,5 C 0,3 C -11,1 C -11,6 C -13,8 C 0,0 C 76 % 82 % 0 % 1036,6 hPa 0,0 l/m 0,0 km/h (0 Bft) NO 45 0 min 0,0 UV-I -13,9 C -13,8 C 0,0 km/h (0 Bft)
26.01.2010 18:25 -10,7 C 0,3 C -11,1 C -11,8 C -14,0 C 0,0 C 77 % 82 % 0 % 1036,6 hPa 0,0 l/m 0,0 km/h (0 Bft) NO 45 0 min 0,0 UV-I -13,9 C -14,0 C 0,0 km/h (0 Bft)
26.01.2010 18:30 -10,7 C 0,3 C -11,1 C -11,8 C -14,0 C 0,0 C 77 % 82 % 0 % 1036,6 hPa 0,0 l/m 0,0 km/h (0 Bft) NO 45 0 min 0,0 UV-I -13,9 C -14,0 C 0,0 km/h (0 Bft)
26.01.2010 18:35 -10,7 C 0,3 C -11,3 C -11,8 C -14,1 C 0,0 C 77 % 82 % 0 % 1036,6 hPa 0,0 l/m 0,0 km/h (0 Bft) NO 45 0 min 0,0 UV-I -13,9 C -14,1 C 0,0 km/h (0 Bft)
26.01.2010 18:40 -10,6 C 0,3 C -11,3 C -11,8 C -14,3 C 0,0 C 77 % 82 % 0 % 1036,6 hPa 0,0 l/m 0,0 km/h (0 Bft) NO 45 0 min 0,0 UV-I -13,8 C -14,3 C 0,0 km/h (0 Bft)
26.01.2010 18:45 -10,6 C 0,3 C -11,5 C -11,9 C -14,4 C 0,0 C 78 % 82 % 0 % 1036,6 hPa 0,0 l/m 0,0 km/h (0 Bft) NO 45 0 min 0,0 UV-I -13,7 C -14,4 C 0,0 km/h (0 Bft)
26.01.2010 18:50 -10,5 C 0,3 C -11,5 C -11,8 C -14,4 C 0,0 C 78 % 82 % 0 % 1036,6 hPa 0,0 l/m 0,0 km/h (0 Bft) NO 45 0 min 0,0 UV-I -13,6 C -14,4 C 0,0 km/h (0 Bft)
26.01.2010 18:55 -10,7 C 0,3 C -11,6 C -12,0 C -14,6 C 0,0 C 78 % 83 % 0 % 1036,6 hPa 0,0 l/m 0,0 km/h (0 Bft) NO 45 0 min 0,0 UV-I -13,8 C -14,6 C 0,0 km/h (0 Bft)
26.01.2010 19:00 -10,8 C 0,4 C -11,5 C -12,1 C -14,6 C 0,0 C 78 % 83 % 0 % 1036,6 hPa 0,0 l/m 0,0 km/h (0 Bft) NO 45 0 min 0,0 UV-I -13,9 C -14,6 C 0,0 km/h (0 Bft)
26.01.2010 19:10 -10,9 C 0,4 C -11,6 C -12,1 C -14,4 C 0,0 C 78 % 84 % 0 % 1036,6 hPa 0,0 l/m 0,0 km/h (0 Bft) NO 45 0 min 0,0 UV-I -14,0 C -14,4 C 0,0 km/h (0 Bft)
26.01.2010 19:15 -11,2 C 0,4 C -11,5 C -12,3 C -14,4 C 0,0 C 79 % 84 % 0 % 1036,6 hPa 0,0 l/m 0,0 km/h (0 Bft) NO 45 0 min 0,0 UV-I -14,1 C -14,4 C 0,0 km/h (0 Bft)
26.01.2010 19:20 -11,1 C 0,4 C -11,7 C -12,2 C -14,4 C 0,0 C 79 % 84 % 0 % 1036,6 hPa 0,0 l/m 0,0 km/h (0 Bft) NO 45 0 min 0,0 UV-I -14,0 C -14,4 C 0,0 km/h (0 Bft)
26.01.2010 19:25 -11,3 C 0,4 C -11,7 C -12,4 C -14,6 C 0,0 C 79 % 84 % 0 % 1036,6 hPa 0,0 l/m 0,0 km/h (0 Bft) NO 45 0 min 0,0 UV-I -14,2 C -14,6 C 0,0 km/h (0 Bft)
26.01.2010 19:26 -11,3 C 0,4 C -11,7 C -12,4 C -14,6 C 0,0 C 79 % 84 % 0 % 1036,6 hPa 0,0 l/m 0,0 km/h (0 Bft) NO 45 0 min 0,0 UV-I -14,2 C -14,6 C 0,0 km/h (0 Bft)
26.01.2010 19:27 -11,3 C 0,4 C -11,7 C -12,4 C -14,6 C 0,0 C 80 % 85 % 0 % 1036,6 hPa 0,0 l/m 0,0 km/h (0 Bft) NO 45 0 min 0,0 UV-I -14,0 C -14,6 C 0,0 km/h (0 Bft)
26.01.2010 19:32 -11,4 C 0,4 C -11,7 C -12,5 C -14,6 C 0,0 C 80 % 85 % 0 % 1036,6 hPa 0,0 l/m 0,0 km/h (0 Bft) NO 45 0 min 0,0 UV-I -14,1 C -14,6 C 0,0 km/h (0 Bft)
26.01.2010 19:37 -11,3 C 0,4 C -11,7 C -12,4 C -14,7 C 0,0 C 80 % 85 % 0 % 1036,6 hPa 0,0 l/m 0,0 km/h (0 Bft) NO 45 0 min 0,0 UV-I -14,0 C -14,7 C 0,0 km/h (0 Bft)
26.01.2010 19:42 -11,3 C 0,4 C -11,9 C -12,5 C -14,8 C 0,0 C 80 % 85 % 0 % 1036,6 hPa 0,0 l/m 0,2 km/h (0 Bft) NO 45 0 min 0,0 UV-I -14,0 C -14,8 C 1,9 km/h (1 Bft)
26.01.2010 19:47 -11,3 C 0,4 C -11,9 C -12,5 C -14,8 C 0,0 C 80 % 85 % 0 % 1036,6 hPa 0,0 l/m 0,2 km/h (0 Bft) NO 45 0 min 0,0 UV-I -14,0 C -14,8 C 0,0 km/h (0 Bft)
26.01.2010 19:52 -11,3 C 0,4 C -12,0 C -12,5 C -14,9 C 0,0 C 80 % 85 % 0 % 1036,6 hPa 0,0 l/m 0,2 km/h (0 Bft) NO 45 0 min 0,0 UV-I -14,0 C -14,9 C 0,0 km/h (0 Bft)
26.01.2010 19:57 -11,5 C 0,4 C -12,0 C -12,7 C -15,0 C 0,0 C 80 % 85 % 0 % 1036,6 hPa 0,0 l/m 0,0 km/h (0 Bft) NO 45 0 min 0,0 UV-I -14,2 C -15,0 C 0,0 km/h (0 Bft)
26.01.2010 20:02 -11,3 C 0,4 C -12,1 C -12,5 C -14,9 C 0,0 C 81 % 85 % 0 % 1036,6 hPa 0,0 l/m 0,0 km/h (0 Bft) NO 45 0 min 0,0 UV-I -13,9 C -14,9 C 0,0 km/h (0 Bft)
26.01.2010 20:07 -11,3 C 0,4 C -12,1 C -12,5 C -14,9 C 0,0 C 81 % 85 % 0 % 1036,6 hPa 0,0 l/m 0,0 km/h (0 Bft) NO 45 0 min 0,0 UV-I -13,9 C -14,9 C 0,0 km/h (0 Bft)
26.01.2010 20:13 -11,6 C 0,4 C -12,1 C -12,7 C -14,9 C 0,0 C 80 % 85 % 0 % 1036,6 hPa 0,0 l/m 0,0 km/h (0 Bft) NO 45 0 min 0,0 UV-I -14,3 C -14,9 C 0,0 km/h (0 Bft)
26.01.2010 20:20 -11,6 C 0,5 C -12,1 C -12,7 C -14,9 C 0,0 C 80 % 86 % 0 % 1036,6 hPa 0,0 l/m 0,0 km/h (0 Bft) NO 45 0 min 0,0 UV-I -14,3 C -14,9 C 0,0 km/h (0 Bft)
26.01.2010 20:25 -11,6 C 0,4 C -12,3 C -12,7 C -15,0 C 0,0 C 80 % 86 % 0 % 1036,6 hPa 0,0 l/m 0,0 km/h (0 Bft) NO 45 0 min 0,0 UV-I -14,3 C -15,0 C 0,0 km/h (0 Bft)
26.01.2010 20:30 -11,6 C 0,4 C -12,4 C -12,9 C -15,5 C 0,0 C 81 % 85 % 0 % 1036,6 hPa 0,0 l/m 0,0 km/h (0 Bft) NO 45 0 min 0,0 UV-I -14,2 C -15,5 C 0,0 km/h (0 Bft)
26.01.2010 20:35 -11,7 C 0,4 C -12,4 C -13,0 C -15,7 C 0,0 C 80 % 85 % 0 % 1036,6 hPa 0,0 l/m 0,0 km/h (0 Bft) NO 45 0 min 0,0 UV-I -14,4 C -15,7 C 0,0 km/h (0 Bft)
26.01.2010 20:40 -11,7 C 0,5 C -12,3 C -13,0 C -15,7 C 0,0 C 81 % 86 % 0 % 1036,6 hPa 0,0 l/m 0,0 km/h (0 Bft) NO 45 0 min 0,0 UV-I -14,3 C -15,7 C 0,0 km/h (0 Bft)
26.01.2010 20:45 -12,0 C 0,4 C -12,5 C -13,2 C -15,5 C 0,0 C 81 % 86 % 0 % 1036,6 hPa 0,0 l/m 0,0 km/h (0 Bft) NO 45 0 min 0,0 UV-I -14,6 C -15,5 C 0,0 km/h (0 Bft)
26.01.2010 20:50 -12,1 C 0,4 C -12,5 C -13,2 C -15,5 C 0,0 C 81 % 86 % 0 % 1036,6 hPa 0,0 l/m 0,0 km/h (0 Bft) NO 45 0 min 0,0 UV-I -14,7 C -15,5 C 0,0 km/h (0 Bft)
26.01.2010 20:55 -12,1 C 0,4 C -12,5 C -13,3 C -15,7 C 0,0 C 82 % 86 % 0 % 1036,6 hPa 0,0 l/m 0,0 km/h (0 Bft) NO 45 0 min 0,0 UV-I -14,5 C -15,7 C 0,0 km/h (0 Bft)
26.01.2010 21:00 -11,9 C 0,4 C -12,5 C -13,2 C -15,7 C 0,0 C 82 % 86 % 0 % 1036,6 hPa 0,0 l/m 0,0 km/h (0 Bft) NO 45 0 min 0,0 UV-I -14,3 C -15,7 C 0,0 km/h (0 Bft)
26.01.2010 21:10 -12,1 C 0,4 C -12,8 C -13,3 C -15,7 C 0,0 C 81 % 86 % 0 % 1036,6 hPa 0,0 l/m 0,0 km/h (0 Bft) NO 45 0 min 0,0 UV-I -14,7 C -15,7 C 0,0 km/h (0 Bft)
26.01.2010 21:15 -12,1 C 0,4 C -12,9 C -13,4 C -16,1 C 0,0 C 81 % 86 % 0 % 1036,6 hPa 0,0 l/m 0,0 km/h (0 Bft) NO 45 0 min 0,0 UV-I -14,7 C -16,1 C 0,0 km/h (0 Bft)
26.01.2010 21:20 -12,4 C 0,4 C -12,9 C -13,6 C -16,1 C 0,0 C 81 % 86 % 0 % 1036,6 hPa 0,0 l/m 0,0 km/h (0 Bft) NO 45 0 min 0,0 UV-I -15,0 C -16,1 C 0,0 km/h (0 Bft)
26.01.2010 21:25 -12,5 C 0,4 C -12,9 C -13,7 C -16,1 C 0,0 C 81 % 87 % 0 % 1036,6 hPa 0,0 l/m 0,0 km/h (0 Bft) NO 45 0 min 0,0 UV-I -15,1 C -16,1 C 0,0 km/h (0 Bft)
26.01.2010 21:30 -12,5 C 0,4 C -12,9 C -13,8 C -16,3 C 0,0 C 81 % 87 % 0 % 1036,6 hPa 0,0 l/m 0,0 km/h (0 Bft) NO 45 0 min 0,0 UV-I -15,1 C -16,3 C 0,0 km/h (0 Bft)
26.01.2010 21:35 -12,4 C 0,4 C -12,9 C -13,8 C -16,6 C 0,0 C 81 % 87 % 0 % 1036,6 hPa 0,0 l/m 0,0 km/h (0 Bft) NO 45 0 min 0,0 UV-I -15,0 C -16,6 C 0,0 km/h (0 Bft)
26.01.2010 21:40 -12,5 C 0,4 C -13,1 C -13,9 C -16,6 C 0,0 C 81 % 86 % 0 % 1036,6 hPa 0,0 l/m 0,0 km/h (0 Bft) NO 45 0 min 0,0 UV-I -15,1 C -16,6 C 0,0 km/h (0 Bft)
26.01.2010 21:45 -12,5 C 0,4 C -13,1 C -13,8 C -16,4 C 0,0 C 81 % 86 % 0 % 1036,6 hPa 0,0 l/m 0,0 km/h (0 Bft) NO 45 0 min 0,0 UV-I -15,1 C -16,4 C 0,0 km/h (0 Bft)
26.01.2010 21:50 -12,5 C 0,4 C -13,1 C -13,9 C -16,6 C 0,0 C 81 % 86 % 0 % 1036,6 hPa 0,0 l/m 0,0 km/h (0 Bft) NO 45 0 min 0,0 UV-I -15,1 C -16,6 C 0,0 km/h (0 Bft)
26.01.2010 21:55 -12,7 C 0,4 C -13,1 C -14,0 C -16,6 C 0,0 C 81 % 86 % 0 % 1036,6 hPa 0,0 l/m 0,0 km/h (0 Bft) NO 45 0 min 0,0 UV-I -15,3 C -16,6 C 0,0 km/h (0 Bft)
26.01.2010 21:57 -12,7 C 0,4 C -13,2 C -14,0 C -16,6 C 0,0 C 82 % 86 % 0 % 1036,6 hPa 0,0 l/m 0,0 km/h (0 Bft) NO 45 0 min 0,0 UV-I -15,1 C -16,6 C 0,0 km/h (0 Bft)
26.01.2010 21:59 -12,7 C 0,4 C -13,2 C -14,0 C -16,6 C 0,0 C 82 % 86 % 0 % 1036,6 hPa 0,0 l/m 0,0 km/h (0 Bft) NO 45 0 min 0,0 UV-I -15,1 C -16,6 C 0,0 km/h (0 Bft)
26.01.2010 22:05 -12,5 C 0,4 C -13,2 C -14,0 C -17,0 C 0,0 C 82 % 87 % 0 % 1036,6 hPa 0,0 l/m 0,0 km/h (0 Bft) NO 45 0 min 0,0 UV-I -14,9 C -17,0 C 0,0 km/h (0 Bft)
26.01.2010 22:13 -12,5 C 0,3 C -13,3 C -14,1 C -17,2 C 0,0 C 82 % 86 % 0 % 1037,6 hPa 0,0 l/m 0,0 km/h (0 Bft) N 0 0 min 0,0 UV-I -14,9 C -17,2 C 0,0 km/h (0 Bft)
26.01.2010 22:20 -12,5 C 0,3 C -13,3 C -14,0 C -17,0 C 0,0 C 82 % 87 % 0 % 1037,6 hPa 0,0 l/m 0,0 km/h (0 Bft) NO 45 0 min 0,0 UV-I -14,9 C -17,0 C 0,0 km/h (0 Bft)
26.01.2010 22:25 -12,5 C 0,3 C -13,3 C -13,9 C -16,8 C 0,0 C 81 % 86 % 0 % 1037,6 hPa 0,0 l/m 0,0 km/h (0 Bft) NO 45 0 min 0,0 UV-I -15,1 C -16,8 C 0,0 km/h (0 Bft)
26.01.2010 22:30 -12,5 C 0,3 C -13,3 C -13,9 C -16,8 C 0,0 C 81 % 86 % 0 % 1037,6 hPa 0,0 l/m 0,0 km/h (0 Bft) NO 45 0 min 0,0 UV-I -15,1 C -16,8 C 0,0 km/h (0 Bft)
26.01.2010 22:35 -12,7 C 0,3 C -13,5 C -14,1 C -17,0 C 0,0 C 81 % 86 % 0 % 1037,6 hPa 0,0 l/m 0,0 km/h (0 Bft) NO 45 0 min 0,0 UV-I -15,3 C -17,0 C 0,0 km/h (0 Bft)
26.01.2010 22:40 -12,7 C 0,3 C -13,5 C -14,1 C -17,0 C 0,0 C 82 % 87 % 0 % 1037,6 hPa 0,0 l/m 0,0 km/h (0 Bft) NO 45 0 min 0,0 UV-I -15,1 C -17,0 C 0,0 km/h (0 Bft)
26.01.2010 22:45 -12,7 C 0,3 C -13,5 C -14,2 C -17,2 C 0,0 C 81 % 86 % 0 % 1037,6 hPa 0,0 l/m 0,0 km/h (0 Bft) NO 45 0 min 0,0 UV-I -15,3 C -17,2 C 0,0 km/h (0 Bft)
26.01.2010 22:50 -12,7 C 0,3 C -13,6 C -14,3 C -17,6 C 0,0 C 81 % 86 % 0 % 1037,6 hPa 0,0 l/m 0,0 km/h (0 Bft) NO 45 0 min 0,0 UV-I -15,3 C -17,6 C 0,0 km/h (0 Bft)
26.01.2010 22:55 -12,9 C 0,3 C -13,7 C -14,5 C -17,6 C 0,0 C 81 % 86 % 0 % 1038,6 hPa 0,0 l/m 0,0 km/h (0 Bft) NO 45 0 min 0,0 UV-I -15,5 C -17,6 C 0,0 km/h (0 Bft)
26.01.2010 23:00 -12,9 C 0,3 C -13,7 C -14,5 C -17,6 C 0,0 C 81 % 86 % 0 % 1038,6 hPa 0,0 l/m 0,0 km/h (0 Bft) NO 45 0 min 0,0 UV-I -15,5 C -17,6 C 0,0 km/h (0 Bft)
26.01.2010 23:10 -13,1 C 0,3 C -13,7 C -14,5 C -17,2 C 0,0 C 81 % 87 % 0 % 1038,6 hPa 0,0 l/m 0,0 km/h (0 Bft) NO 45 0 min 0,0 UV-I -15,7 C -17,2 C 0,0 km/h (0 Bft)
26.01.2010 23:15 -12,9 C 0,3 C -13,7 C -14,4 C -17,4 C 0,0 C 82 % 87 % 0 % 1038,6 hPa 0,0 l/m 0,0 km/h (0 Bft) NO 45 0 min 0,0 UV-I -15,3 C -17,4 C 0,0 km/h (0 Bft)
26.01.2010 23:20 -12,9 C 0,3 C -13,7 C -14,4 C -17,4 C 0,0 C 82 % 87 % 0 % 1038,6 hPa 0,0 l/m 0,0 km/h (0 Bft) NO 45 0 min 0,0 UV-I -15,3 C -17,4 C 0,0 km/h (0 Bft)
26.01.2010 23:25 -12,9 C 0,3 C -13,7 C -14,4 C -17,4 C 0,0 C 81 % 87 % 0 % 1038,6 hPa 0,0 l/m 0,0 km/h (0 Bft) NO 45 0 min 0,0 UV-I -15,5 C -17,4 C 0,0 km/h (0 Bft)
26.01.2010 23:30 -13,1 C 0,3 C -13,7 C -14,5 C -17,4 C 0,0 C 81 % 87 % 0 % 1038,6 hPa 0,0 l/m 0,0 km/h (0 Bft) NO 45 0 min 0,0 UV-I -15,7 C -17,4 C 0,0 km/h (0 Bft)
26.01.2010 23:35 -13,1 C 0,3 C -13,7 C -14,6 C -17,6 C 0,0 C 82 % 87 % 0 % 1038,6 hPa 0,0 l/m 0,0 km/h (0 Bft) NO 45 0 min 0,0 UV-I -15,5 C -17,6 C 0,0 km/h (0 Bft)
26.01.2010 23:40 -13,1 C 0,3 C -13,7 C -14,5 C -17,4 C 0,0 C 82 % 87 % 0 % 1038,6 hPa 0,0 l/m 0,0 km/h (0 Bft) NO 45 0 min 0,0 UV-I -15,5 C -17,4 C 0,0 km/h (0 Bft)
26.01.2010 23:45 -13,1 C 0,3 C -13,7 C -14,6 C -17,6 C 0,0 C 82 % 87 % 0 % 1038,6 hPa 0,0 l/m 0,0 km/h (0 Bft) NO 45 0 min 0,0 UV-I -15,5 C -17,6 C 0,0 km/h (0 Bft)
26.01.2010 23:50 -13,1 C 0,3 C -13,7 C -14,5 C -17,4 C 0,0 C 82 % 87 % 0 % 1038,6 hPa 0,0 l/m 0,0 km/h (0 Bft) NO 45 0 min 0,0 UV-I -15,5 C -17,4 C 0,0 km/h (0 Bft)
26.01.2010 23:55 -13,1 C 0,2 C -13,7 C -14,5 C -17,2 C 0,0 C 82 % 87 % 0 % 1038,6 hPa 0,0 l/m 0,0 km/h (0 Bft) NO 45 0 min 0,0 UV-I -15,5 C -17,2 C 0,0 km/h (0 Bft)
_ Min-Zeit 23:10 16:52 22:55 23:35 22:50 00:00 13:50 14:50 00:00 01:15 - 16:44 - - - 00:00 23:10 22:50 00:10
Minimum _ -13,1 C 0,2 C -13,7 C -14,6 C -17,6 C 0,0 C 70 % 72 % 0 % 1031,9 hPa - 0,0 km/h (0 Bft) - - - 0,0 UV-I -15,7 C -17,6 C 0,0 km/h (0 Bft)
_ Max-Zeit 00:00 16:44 00:00 14:20 14:20 14:20 20:55 21:25 14:20 22:55 00:00 01:10 - - 00:00 11:10 00:00 14:20 08:45
Maximum _ -5,1 C 1,3 C -5,2 C -5,0 C -5,0 C 2,7 C 82 % 87 % 71 % 1038,6 hPa 0,0 l/m 4,2 km/h
NO (1 Bft)
- - 0 min 0,1 UV-I -8,0 C -5,0 C 10,3 km/h
NO (2 Bft)
Durchschnitt _ -9,0 C 0,4 C -9,4 C -9,4 C -10,6 C 0,2 C 78 % 83 % 5 % 1035,1 hPa #0,0 l/m 1,3 km/h (1 Bft) NO - #0 min. 0,1 UV-I -12,1 C -10,6 C 2,0 km/h (1 Bft)
2013 www.wetterstation-wechselburg.de